Location: G�yn�k
(36.6721°N, 30.5542°E)
Time: 23:24:39
(UTC+00:00)

BREEZE-M DEB (TANK) - Visible Passes

Search period start: 01 October 2020 00:00
Search period end: 11 October 2020 00:00
Orbit: 333 x 12042 km, 49.7° (Epoch: 01 October)

Date Brightness Start Highest point End Pass type
(mag) Time Alt. Az. Time Alt. Az. Time Alt. Az.
01 Oct 8.2 03:14:12 10° SSW 04:55:31 89° NW 05:28:52 10° NE visible
01 Oct 9.1 22:54:23 10° SE 23:50:54 23° E 00:29:20 10° ENE visible
02 Oct 8.5 02:31:26 10° SSW 04:10:45 83° SE 04:48:32 10° NE visible
02 Oct 9.2 22:33:27 10° ESE 23:11:20 15° E 23:40:08 10° ENE visible
03 Oct 8.6 01:49:52 10° SSW 03:26:07 75° SE 04:08:01 10° NE visible
04 Oct 8.7 01:09:25 10° S 02:41:54 67° ESE 03:27:17 10° NE visible
05 Oct 8.7 00:30:04 10° S 01:58:17 58° ESE 02:46:13 10° NE visible
05 Oct 8.7 23:51:57 10° S 01:15:23 50° ESE 02:04:44 10° NE visible
06 Oct 8.7 23:15:22 10° SSE 00:33:20 42° ESE 01:22:41 10° NE visible
07 Oct 8.1 03:20:36 10° SW 05:03:35 78° NW 05:34:33 10° ENE visible
07 Oct 8.8 22:40:55 10° SSE 23:52:04 34° E 00:39:44 10° NE visible
08 Oct 8.3 02:36:21 10° SW 04:18:13 85° NW 04:54:13 10° NE visible
08 Oct 8.9 22:09:46 10° SE 23:11:40 26° E 23:55:20 10° ENE visible
09 Oct 8.4 01:53:30 10° SSW 03:32:44 87° SE 04:13:45 10° NE visible
09 Oct 9.0 21:44:24 10° ESE 22:32:05 19° E 23:08:04 10° ENE visible
10 Oct 8.5 01:11:48 10° SSW 02:47:30 79° SE 03:33:06 10° NE visible
10 Oct 9.2 21:32:38 10° E 21:53:22 12° E 22:11:26 10° ENE visible
